Weather History for Trang, Thailand

Change the Weather History Date:

Wednesday, January 22, 2014

  Actual Average Record
Temperature  
Mean Temperature 79 °F -  
Max Temperature 88 °F 92 °F - ()
Min Temperature 70 °F 70 °F - ()
Cooling Degree Days 14    
Growing Degree Days 29 (Base 50)    
Moisture  
Dew Point 67 °F    
Average Humidity 63    
Maximum Humidity 88    
Minimum Humidity 38    
Precipitation  
Precipitation 0.00 in 0.04 in - ()
Sea Level Pressure  
Sea Level Pressure 29.92 in    
Wind  
Wind Speed 7 mph ()    
Max Wind Speed 15 mph    
Max Gust Speed -    
Visibility 5.3 miles    
Events      
T = Trace of Precipitation, MM = Missing Value Source: Averaged Metar Reports

Daily Weather History Graph

Daily Weather History Graph

Search for Another Location

Airport:

Trip Planner

Search our weather history database for the weather conditions in past years. The results will help you decide how hot, cold, wet, or windy it might be!

Date:

Astronomy

Jan. 22, 2014 Rise Set
Actual Time 6:40 AM ICT 6:25 PM ICT
Civil Twilight 6:18 AM ICT 6:48 PM ICT
Nautical Twilight 5:52 AM ICT 7:13 PM ICT
Astronomical Twilight 5:27 AM ICT 7:39 PM ICT
Moon 11:07 PM ICT (1/22) 10:37 AM ICT (1/22)
Length of Visible Light 12h 29m
Length of Day
11h 45m
Waning Gibbous, 70% of the Moon is Illuminated
Jan 22
Waning Gibbous
Jan 24
Last Quarter
Jan 31
New
Feb 7
First Quarter
Feb 15
Full

Hourly Weather History & Observations

Time (ICT) Temp. Heat Index Dew Point Humidity Pressure Visibility Wind Dir Wind Speed Gust Speed Precip Events Conditions
1:00 AM 73 °F - 68 °F 79% 29.97 in 5 mi NE 3.5 mph - -   Mist
4:00 AM 74 °F - 68 °F 78% 29.92 in 4 mi NE 6.9 mph - -   Mist
7:00 AM 71 °F - 67 °F 85% 29.95 in 4 mi Calm Calm - -   Mist
7:00 AM 71.6 °F - 68.0 °F 88% 29.92 in 3.7 mi Calm Calm - N/A   Mostly Cloudy
8:00 AM 75.2 °F - 68.0 °F 78% 29.95 in 5.0 mi NNE 10.4 mph - N/A   Mostly Cloudy
9:00 AM 80.6 °F 83.2 °F 68.0 °F 65% 29.95 in 5.0 mi ENE 9.2 mph - N/A   Partly Cloudy
10:00 AM 82 °F - 69 °F 57% 29.98 in 5 mi NE 8.1 mph - -   Mist
10:00 AM 82.4 °F 86.3 °F 69.8 °F 66% 29.95 in 5.0 mi ENE 11.5 mph - N/A   Scattered Clouds
11:00 AM 84.2 °F 86.6 °F 66.2 °F 55% 29.95 in 5.6 mi NE 12.7 mph - N/A   Scattered Clouds
12:00 PM 86.0 °F 88.2 °F 66.2 °F 51% 29.92 in 5.6 mi ENE 15.0 mph - N/A   Scattered Clouds
1:00 PM 88 °F - 66 °F 38% 29.92 in 6 mi ENE 11.5 mph - -   Scattered Clouds
1:00 PM 87.8 °F 90.4 °F 66.2 °F 49% 29.89 in 5.6 mi ENE 13.8 mph - N/A   Scattered Clouds
2:00 PM 87.8 °F 89.4 °F 64.4 °F 46% 29.86 in 6.2 mi ENE 13.8 mph - N/A   Scattered Clouds
3:00 PM 87.8 °F 89.4 °F 64.4 °F 46% 29.86 in 6.2 mi ENE 11.5 mph - N/A   Scattered Clouds
4:00 PM 85 °F - 64 °F 40% 29.87 in 6 mi ENE 9.2 mph - -   Scattered Clouds
4:00 PM 86.0 °F 87.3 °F 64.4 °F 48% 29.86 in 6.2 mi ENE 11.5 mph - N/A   Scattered Clouds
5:00 PM 82.4 °F 85.4 °F 68.0 °F 62% 29.89 in 5.6 mi ENE 12.7 mph - N/A   Mostly Cloudy
6:00 PM 78.8 °F - 68.0 °F 69% 29.89 in 5.6 mi NE 13.8 mph - N/A   Mostly Cloudy
7:00 PM 76 °F - 69 °F 73% 29.94 in 6 mi NE 5.8 mph - -   Mist
10:00 PM 74 °F - 70 °F 84% 29.99 in 5 mi Calm Calm - -   Mist